Location: ??
(35.5052°N, 139.7262°E)
Time: 07:42:06
(UTC+00:00)

Envisat - Pass Details

Date: 02 October 2021
Orbit: 764 x 766 km, 98.2° (Epoch: 25 October)

Event Time Altitude Azimuth Distance (km) Brightness Sun altitude
Rises 19:40:31 0° 14° (NNE) 3,235 6.5 -12.4°
Reaches altitude 10° 19:42:50 10° 16° (NNE) 2,305 5.7 -11.9°
Maximum altitude 19:47:55 77° 102° (ESE) 788 3.2 -10.9°
Drops below altitude 10° 19:52:58 10° 188° (S) 2,290 5.4 -9.9°
Sets 19:55:16 0° 190° (S) 3,212 6.1 -9.4°
